Strona główna
METAR-TAF:

METAR-TAF

Lotnisko :

Akron, Ohio, Stany Zjednoczone

Szerokość geograficzna: 41-02-15N, Długość geograficzna: 081-27-51W, wysokość: 325 m

Aktualna obserwacja pogody

Raport powstał 27 minut temu, godzina 04:54 UTC
Wiatr 6 kt od południe
Temperatura 24°C
Wilgotność 61%
Ciśnienie 1017 hPa
Widzialność: 16.1 km
bezchmurnie

METAR: KAKR 280454Z AUTO 17006KT 10SM CLR 24/16 A3003 RMK AO2 SLP159 T02440161 403000211

czas: 01:21 (05:21 UTC)


TAF: brakujący

Obserwacja i prognoza pogody dla ponad 4000 lotnisk (raport METAR i TAF).

Dostępne stacje oznaczono żółtymi i czerwonymi punktami na mapie.

Najedź kursorem aby zobaczyć nazwę stacji.

Kliknij aby zobaczyć obserwacje i prognozy pogody.

Aby zmienić mapę: kliknij na zielony przycisk z czarnym krzyżykiem, aby powiększyć; na zielony przycisk z myślnikiem, aby pomniejszyć; na zielone strzałki, aby przejść do map sąsiednich.


METAR-TAF: